Weather History for Walla Walla, WA

Change the Weather History Date:

Friday, February 1, 2013

  Actual Average Record
Temperature  
Mean Temperature 45 °F -  
Max Temperature 53 °F 41 °F 65 °F (1991)
Min Temperature 37 °F 28 °F -16 °F (1950)
Degree Days  
Heating Degree Days 20    
Moisture  
Dew Point 37 °F    
Average Humidity 74    
Maximum Humidity 83    
Minimum Humidity 55    
Precipitation  
Precipitation 0.00 in - - ()
Sea Level Pressure  
Sea Level Pressure 30.38 in    
Wind  
Wind Speed 7 mph (SSE)    
Max Wind Speed 13 mph    
Max Gust Speed -    
Visibility 10 miles    
Events      
Averages and records for this station are not official NWS values.
T = Trace of Precipitation, MM = Missing Value Source: NWS Daily Summary

Daily Weather History Graph

Daily Weather History Graph

Search for Another Location

Airport:

Trip Planner

Search our weather history database for the weather conditions in past years. The results will help you decide how hot, cold, wet, or windy it might be!

Date:

Astronomy

Feb. 01, 2013 Rise Set
Actual Time 7:15 AM PST 4:58 PM PST
Civil Twilight 6:43 AM PST 5:30 PM PST
Nautical Twilight 6:07 AM PST 6:06 PM PST
Astronomical Twilight 5:32 AM PST 6:41 PM PST
Moon 11:36 PM PST (2/1) 9:28 AM PST (2/1)
Length of Visible Light 10h 47m
Length of Day
9h 43m
Waning Gibbous, 69% of the Moon is Illuminated
Feb 1
Waning Gibbous
Feb 3
Last Quarter
Feb 9
New
Feb 17
First Quarter
Feb 25
Full

Hourly Weather History & Observations

Time (PST) Temp. Windchill Dew Point Humidity Pressure Visibility Wind Dir Wind Speed Gust Speed Precip Events Conditions
12:53 AM 44.1 °F 39.0 °F 37.0 °F 76% 30.30 in 10.0 mi SSW 9.2 mph - N/A   Mostly Cloudy
1:53 AM 41.0 °F 37.1 °F 36.0 °F 82% 30.30 in 10.0 mi South 5.8 mph - N/A   Mostly Cloudy
2:53 AM 43.0 °F 38.8 °F 37.0 °F 80% 30.31 in 10.0 mi South 6.9 mph - N/A   Overcast
3:53 AM 44.1 °F 39.5 °F 37.0 °F 76% 30.31 in 10.0 mi South 8.1 mph - N/A   Overcast
4:53 AM 44.1 °F 38.6 °F 37.0 °F 76% 30.32 in 10.0 mi South 10.4 mph - N/A   Overcast
7:53 AM 41.0 °F 35.2 °F 36.0 °F 82% 30.36 in 10.0 mi SSW 9.2 mph - N/A   Clear
8:53 AM 45.0 °F 41.2 °F 37.9 °F 76% 30.38 in 10.0 mi SSW 6.9 mph - N/A   Clear
9:53 AM 48.0 °F - 39.0 °F 71% 30.38 in 10.0 mi SSW 12.7 mph - N/A   Clear
10:53 AM 48.9 °F - 39.0 °F 69% 30.39 in 10.0 mi SSW 8.1 mph - N/A   Clear
11:53 AM 50.0 °F - 39.0 °F 66% 30.38 in 10.0 mi WSW 9.2 mph - N/A   Clear
1:53 PM 52.0 °F - 37.9 °F 59% 30.37 in 10.0 mi WNW 4.6 mph - N/A   Clear
2:53 PM 52.0 °F - 37.0 °F 57% 30.38 in 10.0 mi Calm Calm - N/A   Clear
3:53 PM 53.1 °F - 37.0 °F 55% 30.38 in 10.0 mi Calm Calm - N/A   Clear
4:53 PM 48.0 °F - 39.9 °F 74% 30.39 in 10.0 mi NE 4.6 mph - N/A   Clear
5:53 PM 45.0 °F 40.6 °F 37.9 °F 76% 30.40 in 10.0 mi East 8.1 mph - N/A   Clear
6:53 PM 43.0 °F 38.8 °F 36.0 °F 76% 30.40 in 10.0 mi East 6.9 mph - N/A   Clear
7:53 PM 41.0 °F 35.2 °F 36.0 °F 82% 30.40 in 10.0 mi East 9.2 mph - N/A   Clear
8:53 PM 39.0 °F 36.8 °F 34.0 °F 82% 30.42 in 10.0 mi SSE 3.5 mph - N/A   Clear
9:53 PM 37.9 °F 33.5 °F 33.1 °F 83% 30.44 in 10.0 mi ESE 5.8 mph - N/A   Clear
10:53 PM 37.9 °F 32.7 °F 33.1 °F 83% 30.44 in 10.0 mi ESE 6.9 mph - N/A   Clear
11:53 PM 37.9 °F - 33.1 °F 83% 30.46 in 10.0 mi Calm Calm - N/A   Clear